Wind_Speed
11 8 6 3 2 2 3 3 3 3 5 6 8 16 17 18 18 18 19 21 21 22 23 22 21 21 21 21 22 23 22 22 24 24 23 23 23 23
9 7 5 3 2 2 4 5 6 5 4 7 12 16 18 18 18 19 21 19 19 21 23 23 24 23 21 22 21 21 23 24 24 25 24 24 23 24
10 7 5 3 3 3 5 5 7 9 10 12 13 16 18 20 19 19 20 20 21 22 23 24 24 21 24 22 26 24 22 22 22 23 23 24 24 24
10 7 5 3 3 4 6 7 8 10 12 14 15 17 20 21 21 21 20 22 25 24 24 24 23 23 25 25 26 27 25 23 22 21 22 23 23 22
10 7 5 4 4 5 6 8 9 10 12 16 17 18 19 21 22 22 23 24 25 27 26 26 24 23 24 25 25 24 23 21 21 24 24 24 24 25
10 7 5 4 4 6 6 8 9 10 12 13 15 18 20 22 24 28 29 27 27 28 23 27 25 24 25 25 23 24 22 23 26 27 26 26 25 25
11 7 5 5 6 5 6 7 8 10 12 14 17 20 22 25 27 29 30 32 29 29 29 29 31 29 27 27 27 27 27 28 27 26 22 23 24 23
9 7 6 5 4 4 5 7 9 10 12 15 18 20 22 25 28 28 30 32 30 29 36 34 32 32 29 28 29 28 26 25 20 22 26 27 27 26
11 7 5 4 3 4 5 7 9 9 10 12 15 18 22 25 25 26 28 29 32 34 36 37 32 31 32 30 30 23 20 20 25 30 26 27 27 26
8 5 4 3 3 5 6 8 10 11 12 14 16 20 21 20 20 22 26 29 31 31 31 35 31 36 35 35 29 23 29 27 29 29 28 27 26 26
7 6 4 2 3 5 7 9 10 12 13 15 17 17 19 21 22 25 27 30 33 33 28 29 36 39 40 38 28 36 31 32 30 28 28 26 25 26
10 6 4 2 3 7 9 11 11 14 15 16 16 18 20 20 20 21 24 25 26 29 30 35 34 34 38 26 35 37 38 35 34 31 28 24 22 22
7 5 3 2 5 8 10 10 10 14 16 18 19 19 19 20 20 20 20 20 24 26 28 28 33 33 29 40 39 39 37 38 36 33 26 22 23 21
8 6 2 2 4 6 7 8 12 13 15 16 18 19 21 21 21 20 20 20 21 25 28 25 31 31 33 38 38 40 37 36 35 31 32 30 26 24
7 4 1 1 3 5 7 9 11 13 15 16 18 20 21 21 21 20 20 21 22 23 24 26 27 29 32 37 38 40 38 37 35 38 34 32 31 30
6 4 2 1 2 4 6 9 11 13 15 16 18 19 20 22 22 23 25 26 29 30 27 27 27 31 34 33 35 39 35 36 41 38 37 35 31 26
6 5 3 2 2 3 6 8 10 12 14 16 17 20 21 23 23 23 26 29 32 35 36 32 31 31 30 34 35 35 36 39 40 36 32 33 31 27
7 5 4 3 4 4 6 9 11 13 14 16 18 20 22 24 26 27 28 30 34 36 36 37 38 38 37 37 25 33 36 39 36 32 30 33 34 29
7 6 4 3 3 4 7 11 12 13 14 15 18 20 22 24 28 31 34 37 38 38 39 40 39 37 39 39 41 33 35 38 36 34 32 34 36 34
7 5 4 4 4 4 8 11 12 13 14 17 18 20 23 29 34 37 38 38 39 39 41 37 36 37 35 40 42 40 36 37 35 35 36 33 32 29
7 5 5 4 3 6 10 10 12 13 15 15 17 22 26 31 35 37 37 36 36 39 41 40 36 33 33 35 37 41 38 31 30 31 32 32 33 33
7 6 5 3 5 7 10 12 13 13 16 16 20 25 28 31 35 36 36 38 39 40 41 40 38 36 36 34 36 38 38 35 28 26 25 21 23 27
7 6 5 4 6 9 10 12 14 15 16 17 22 24 28 33 34 34 35 37 39 40 38 38 36 34 33 31 32 33 34 34 34 33 26 18 18 20
Wind_Direction
193 193 200 212 246 296 313 316 312 292 262 240 277 309 321 328 332 334 335 335 337 337 335 335 335 329 329 323 321 320 318 318 317 313 310 308 301 300
198 200 206 225 262 306 317 325 321 317 306 282 301 316 326 329 332 332 332 334 330 327 329 328 327 327 328 326 323 315 311 314 313 311 309 304 299 296
203 203 218 242 276 303 308 324 315 317 308 315 320 324 325 326 331 330 331 327 328 329 327 323 324 322 321 319 317 320 319 317 316 311 306 300 297 294
207 207 217 248 288 305 313 314 308 309 313 315 325 324 324 327 329 328 327 329 326 328 329 327 326 323 321 319 316 316 316 314 315 316 310 307 299 295
211 213 220 242 276 295 300 304 309 314 309 319 322 323 327 328 329 328 325 326 327 327 331 327 334 329 326 324 320 321 318 319 318 309 309 304 299 296
209 217 230 250 271 285 295 303 305 307 313 320 321 326 331 330 330 329 327 327 326 327 330 328 332 330 328 324 325 322 316 315 308 312 311 308 297 294
204 212 234 255 267 283 291 304 314 313 319 328 328 329 330 331 332 330 329 330 328 334 332 330 330 330 330 328 328 329 320 315 316 315 314 310 305 289
204 210 227 245 274 300 303 313 322 327 322 323 325 324 325 327 328 331 328 329 327 334 326 326 329 329 330 331 332 325 317 319 321 313 310 306 300 303
204 207 223 252 281 304 318 328 319 319 317 319 318 317 318 325 326 322 321 318 316 322 320 322 331 326 328 331 331 329 328 325 311 313 314 307 305 302
195 213 236 263 295 304 328 322 320 320 319 315 313 312 311 313 312 312 310 308 310 318 326 319 330 327 328 331 336 332 330 319 320 317 313 307 303 300
185 200 210 226 285 319 325 317 318 316 319 317 315 314 316 317 318 313 318 321 323 324 332 327 329 328 328 331 336 328 326 329 322 318 314 309 306 304
175 174 178 214 300 315 322 324 324 323 330 329 324 324 325 327 325 322 321 325 329 329 334 328 327 329 325 328 319 328 330 330 328 327 324 316 312 312
160 168 196 288 329 329 331 332 341 333 332 330 332 333 335 336 335 332 329 327 325 319 329 326 321 324 316 314 318 329 330 330 329 331 329 323 317 311
181 176 199 310 334 327 331 325 332 333 335 337 341 345 347 347 346 340 334 326 320 316 323 323 319 323 322 315 316 328 329 330 329 329 327 321 314 307
168 154 161 350 338 330 331 339 341 343 344 346 347 348 349 345 344 343 339 333 327 329 329 330 329 329 323 319 318 324 323 332 332 330 327 324 321 317
164 145 116 43 0 360 354 351 349 353 352 348 346 348 347 347 349 347 343 341 336 336 336 339 336 331 325 323 325 323 329 319 330 330 327 321 318 315
147 138 131 114 76 24 5 1 358 1 359 355 352 352 351 349 350 349 345 340 335 336 334 338 338 333 328 329 327 327 322 324 329 326 322 320 318 317
147 142 132 97 53 23 9 11 8 6 5 1 357 353 350 351 349 350 344 340 336 335 335 338 339 337 335 332 327 319 316 318 329 327 326 324 321 323
147 129 108 92 64 27 14 11 12 10 6 2 1 359 357 353 350 346 344 341 338 337 336 336 334 332 323 314 332 332 315 330 333 331 329 324 316 319
124 120 113 89 62 23 14 14 10 5 2 5 1 358 355 352 349 346 344 341 340 336 332 336 339 335 319 316 319 330 341 333 331 328 322 320 317 317
129 116 102 78 39 17 12 9 9 3 4 356 360 357 354 351 349 345 345 343 340 338 335 336 338 337 331 332 320 327 333 338 334 325 324 323 321 318
114 105 88 54 21 13 9 10 6 3 5 3 360 355 354 350 348 346 346 343 343 340 336 337 337 337 335 333 326 324 329 335 336 333 334 330 316 303
102 83 59 34 14 5 0 3 1 6 3 0 355 353 350 349 348 346 346 348 347 342 339 335 335 336 332 332 326 330 337 339 342 343 345 346 336 322
Height
1562 1563 1565 1566 1566 1567 1567 1568 1568 1568 1568 1566 1566 1564 1561 1558 1555 1552 1550 1547 1544 1541 1537 1534 1531 1528 1525 1522 1519 1516 1513 1508 1505 1502 1500 1497 1496 1494
1561 1562 1563 1564 1564 1565 1565 1565 1566 1565 1567 1566 1563 1559 1558 1555 1551 1549 1547 1544 1542 1538 1534 1530 1526 1523 1520 1516 1514 1510 1506 1502 1499 1496 1494 1491 1490 1489
1559 1560 1561 1562 1562 1562 1563 1560 1563 1562 1562 1561 1558 1556 1554 1551 1547 1546 1543 1540 1537 1535 1531 1526 1521 1518 1514 1510 1505 1501 1498 1496 1492 1490 1487 1484 1483 1481
1557 1557 1558 1560 1560 1560 1559 1559 1559 1559 1558 1557 1553 1552 1551 1547 1543 1541 1539 1535 1532 1528 1525 1521 1518 1515 1510 1505 1500 1495 1491 1488 1486 1483 1480 1478 1476 1473
1556 1556 1556 1556 1557 1557 1556 1556 1556 1555 1554 1552 1550 1549 1547 1542 1539 1536 1534 1531 1527 1523 1519 1515 1513 1509 1505 1500 1495 1491 1487 1483 1483 1478 1475 1472 1469 1467
1552 1554 1554 1554 1554 1554 1553 1553 1552 1552 1551 1549 1547 1545 1542 1539 1535 1530 1526 1524 1521 1517 1515 1509 1507 1503 1499 1495 1490 1486 1482 1479 1475 1471 1468 1465 1463 1459
1549 1550 1551 1551 1551 1550 1551 1550 1549 1548 1546 1544 1543 1540 1537 1534 1531 1527 1522 1518 1516 1511 1507 1504 1499 1496 1491 1487 1483 1479 1475 1471 1469 1466 1462 1459 1454 1450
1546 1547 1548 1548 1549 1547 1548 1547 1546 1544 1543 1540 1538 1536 1533 1531 1527 1523 1518 1514 1509 1509 1500 1497 1494 1489 1485 1482 1477 1474 1468 1464 1462 1459 1456 1451 1448 1445
1544 1542 1545 1545 1547 1546 1545 1545 1544 1543 1541 1537 1535 1533 1530 1527 1523 1518 1515 1511 1507 1502 1498 1490 1490 1484 1480 1476 1471 1466 1463 1460 1457 1452 1447 1444 1441 1438
1539 1540 1542 1542 1543 1545 1543 1543 1543 1541 1537 1536 1533 1532 1529 1524 1520 1515 1511 1507 1503 1499 1494 1484 1483 1476 1472 1469 1466 1461 1458 1456 1451 1446 1442 1438 1433 1430
1535 1537 1539 1539 1540 1540 1541 1541 1540 1538 1535 1533 1530 1529 1525 1521 1516 1509 1507 1501 1494 1492 1491 1483 1478 1471 1467 1461 1460 1456 1452 1447 1442 1438 1433 1430 1426 1421
1533 1534 1537 1537 1536 1537 1538 1538 1536 1534 1531 1529 1528 1524 1520 1516 1512 1508 1504 1498 1493 1487 1488 1481 1475 1471 1459 1455 1454 1449 1444 1440 1434 1429 1424 1421 1418 1412
1532 1533 1533 1532 1533 1534 1535 1535 1533 1530 1528 1526 1523 1520 1516 1512 1507 1504 1501 1496 1491 1488 1485 1480 1473 1469 1465 1451 1445 1442 1437 1430 1427 1420 1416 1415 1411 1408
1531 1529 1529 1529 1530 1533 1534 1533 1530 1528 1525 1522 1519 1516 1512 1507 1503 1500 1497 1494 1490 1486 1481 1479 1471 1465 1457 1450 1438 1434 1429 1426 1421 1415 1410 1407 1402 1400
1528 1526 1528 1528 1529 1531 1532 1530 1528 1525 1522 1518 1517 1513 1509 1505 1500 1496 1494 1490 1486 1483 1478 1474 1469 1461 1455 1447 1436 1428 1423 1418 1414 1409 1404 1398 1393 1390
1525 1524 1526 1528 1529 1529 1530 1528 1526 1522 1519 1517 1515 1510 1506 1502 1497 1493 1489 1485 1480 1476 1474 1468 1462 1456 1448 1443 1434 1424 1420 1414 1408 1402 1396 1391 1387 1384
1523 1524 1526 1527 1527 1528 1528 1526 1524 1520 1517 1516 1512 1506 1502 1498 1494 1490 1486 1482 1478 1471 1465 1462 1455 1450 1443 1436 1428 1420 1414 1408 1403 1396 1391 1384 1379 1377
1523 1524 1525 1525 1524 1527 1527 1524 1521 1518 1515 1512 1510 1505 1501 1496 1492 1488 1485 1480 1472 1466 1459 1455 1448 1441 1432 1428 1426 1416 1409 1404 1397 1391 1386 1379 1372 1369
1523 1523 1523 1524 1525 1526 1524 1521 1517 1515 1512 1510 1507 1503 1500 1496 1492 1486 1480 1474 1466 1461 1455 1450 1445 1438 1430 1421 1414 1415 1406 1398 1390 1384 1380 1375 1368 1363
1522 1524 1525 1523 1524 1525 1521 1516 1515 1512 1511 1508 1505 1503 1498 1492 1488 1483 1475 1469 1461 1456 1451 1445 1440 1434 1428 1420 1410 1404 1402 1393 1387 1379 1373 1368 1363 1358
1523 1522 1522 1523 1524 1522 1516 1514 1512 1511 1509 1507 1504 1501 1497 1489 1483 1480 1474 1468 1461 1454 1445 1439 1435 1430 1423 1416 1407 1400 1394 1392 1385 1377 1369 1362 1355 1350
1520 1520 1521 1522 1520 1517 1516 1513 1511 1510 1507 1505 1502 1497 1492 1489 1483 1477 1471 1464 1456 1449 1441 1434 1428 1422 1417 1412 1404 1397 1389 1383 1379 1374 1368 1362 1355 1347
1520 1519 1518 1517 1517 1515 1513 1512 1510 1507 1505 1502 1499 1494 1491 1487 1481 1475 1468 1460 1452 1444 1437 1430 1424 1419 1413 1408 1401 1393 1386 1379 1372 1365 1360 1357 1352 1346